Showing default

IRIDE FM8, 66702

Orbit data source: Space-Track

IRIDE FM8, 66702 is an Italian payload satellite in SSO that was launched on Fri, 28 Nov 2025 UTC via an FALCON 9 launch vehicle from the Air Force Western Test Range (AFWTR). Payload-class satellites include a variety of spacecraft equipped with specific instruments for various scientific and technological missions. These include communications satellites like Starlink; space stations such as the ISS; scientific satellites like the Hubble; Earth observation satellites from companies like Planet Labs, Umbra, and HawkEye 360; GPS; miniature CubeSats for education and research; and military/defense satellites.

Loading next visibility...
Identifier
66702, 2025-276AN
Orbit
SSO
Country
Flag of ITIT
Related business
Manufacturer
OHB-I
Mission
Operational Commercial Technology
Bus & Motor
EAGLET, Unknown motor
Mass
25 kg wet, 25 kg dry
Launch date (UTC)
2025-11-28 (6 months ago)
Launch vehicle
FALCON 9
Launch site
Air Force Western Test Range (AFWTR)
Object type
Payload
Rocket body
Debris
Shape & HBR
Box + 2 Pan, 1.0 m
Radar Cross Section
0.368 m²

Expand to show TLE details & history
Last TLE update: 6 hours ago

TLE from 6 hours ago
0 IRIDE FM8
1 66702U 25276AN  26144.94971389  .00007437  00000-0  34986-3 0  9994
2 66702  97.4196 218.8899 0005377 103.1419 257.0416 15.19837963 26897
Epoch: 2026-05-24T22:47Z
TLE epoch observation values (Epoch: 2026-05-24T22:47:35.280Z)
Latitude
-0.00003°
Longitude
-5.55161°
Altitude
510.252 km
Speed
7.608 km/s
True Right ascension
14h 35m 33s
True Declination
0° 00' 00"
Sunlit
Object was in full shadow at epoch
Visualization orbit readout
Latitude
Unknown
Longitude
Unknown
Altitude
Unknown
Speed
Unknown
Apparent Right ascension
Unknown
Apparent Declination
Unknown
Sunlit
N/A
Visualization observer readout
Local Sidereal Time
13:55:52
Azimuth
Unknown
Elevation
Unknown
Doppler factor
Unknown
Orbital elements
Apogee altitude
506.997 km
Perigee altitude
499.596 km
Semi-major axis
6,881.434 km
Eccentricity
0.00054
Inclination
97.4196°
RAAN
218.8899°
Arg. of periapsis
103.1419°
True anomaly
256.98156°
Mean anomaly
257.0416°
Eccentric anomaly
257.01158°
Mean motion
3.80211 °/min
Orbital period
94.68 mins
BSTAR
0.00034986
Loading maneuver chart data...
Computing Atmospheric mass density...
Loading historical data...
Loading historical data...
Loading historical data...
Loading historical data...
Loading historical data...
Loading historical data...
Loading historical data...

Documentation

Showing up to 5 results
|